EW4939 Weather Reports


Display with metric or nautical units.
time (UTC)temp
F
wind
direction
speed
MPH
gust
MPH
rain 1hr
in
rain 24hr
in
rain mn
in
humidity
%
barometer
mb
20260503021418 40 23 0.0 0.0 0.00 0.00 0.00 77 1019.3
20260503020916 40 23 0.0 0.0 0.00 0.00 0.00 76 1019.0
20260503020413 40 23 0.0 0.0 0.00 0.00 0.00 77 1019.1
20260503015909 40 23 0.0 0.0 0.00 0.00 0.00 77 1019.1
20260503015407 41 23 0.0 0.0 0.00 0.00 0.00 74 1018.9
20260503014902 41 23 0.0 0.0 0.00 0.00 0.00 75 1019.0
20260503014400 41 23 0.0 0.0 0.00 0.00 0.00 74 1018.9
20260503013858 42 23 0.0 0.0 0.00 0.00 0.00 74 1018.7
20260503013354 42 23 0.0 0.0 0.00 0.00 0.00 74 1018.7
20260503012851 42 23 0.0 0.0 0.00 0.00 0.00 73 1018.8
20260503012349 43 23 0.0 0.0 0.00 0.00 0.00 71 1018.7
20260503011846 43 23 0.0 0.0 0.00 0.00 0.00 65 1018.6
20260503011343 43 23 0.0 0.0 0.00 0.00 0.00 65 1018.5
20260503010839 44 23 0.0 0.0 0.00 0.00 0.00 66 1018.5
20260503010336 45 23 0.0 0.0 0.00 0.00 0.00 65 1018.5
20260503005833 45 23 0.0 0.0 0.00 0.00 0.00 63 1018.3
20260503005331 46 23 0.0 0.0 0.00 0.00 0.00 57 1018.4
20260503004826 46 23 0.0 0.0 0.00 0.00 0.00 59 1018.5
20260503004324 47 23 0.0 0.0 0.00 0.00 0.00 54 1018.5
20260503003822 47 352 1.0 2.0 0.00 0.00 0.00 53 1018.3
20260503003318 48 322 2.0 4.0 0.00 0.00 0.00 51 1018.3
20260503002815 48 32 2.0 4.0 0.00 0.00 0.00 51 1018.4
20260503002312 48 302 2.0 4.0 0.00 0.00 0.00 50 1018.2
20260503001809 48 25 1.0 3.0 0.00 0.00 0.00 50 1018.2
20260503001305 48 3 3.0 4.0 0.00 0.00 0.00 49 1018.1
20260503000803 49 1 2.0 3.0 0.00 0.00 0.00 50 1018.0
20260503000300 49 36 0.0 2.0 0.00 0.00 0.00 49 1018.0
20260502235757 49 301 3.0 3.0 0.00 0.00 0.00 49 1017.9
20260502235254 50 354 3.0 4.0 0.00 0.00 0.00 48 1017.9
20260502234750 50 341 2.0 4.0 0.00 0.00 0.00 49 1017.7
20260502234248 50 3 4.0 9.0 0.00 0.00 0.00 47 1018.0
20260502233744 50 1 4.0 6.0 0.00 0.00 0.00 47 1017.9
20260502233241 50 318 4.0 4.0 0.00 0.00 0.00 46 1017.8
20260502232736 51 3 2.0 3.0 0.00 0.00 0.00 45 1017.9
20260502232234 50 29 3.0 7.0 0.00 0.00 0.00 45 1017.8
20260502231730 50 297 2.0 4.0 0.00 0.00 0.00 46 1017.6
20260502231228 50 43 1.0 4.0 0.00 0.00 0.00 46 1017.9
20260502230727 51 13 2.0 4.0 0.00 0.00 0.00 47 1017.6
20260502230225 51 336 1.0 3.0 0.00 0.00 0.00 46 1017.7
20260502225720 52 37 1.0 3.0 0.00 0.00 0.00 44 1017.6
20260502225218 51 139 1.0 4.0 0.00 0.00 0.00 44 1017.4
20260502224714 51 335 3.0 4.0 0.00 0.00 0.00 45 1017.7
20260502224211 51 318 4.0 6.0 0.00 0.00 0.00 43 1017.3
20260502223708 52 302 4.0 7.0 0.00 0.00 0.00 41 1017.6
20260502223206 52 335 2.0 4.0 0.00 0.00 0.00 45 1017.4
20260502222704 53 319 4.0 6.0 0.00 0.00 0.00 40 1017.5
20260502222200 52 299 2.0 4.0 0.00 0.00 0.00 42 1017.6
20260502221656 51 36 2.0 3.0 0.00 0.00 0.00 43 1017.4
20260502221153 51 328 3.0 4.0 0.00 0.00 0.00 43 1017.5
20260502220649 52 335 2.0 6.0 0.00 0.00 0.00 44 1017.4
20260502220145 51 309 3.0 6.0 0.00 0.00 0.00 44 1017.4
20260502215643 51 352 4.0 8.0 0.00 0.00 0.00 42 1017.4
20260502215139 52 325 4.0 6.0 0.00 0.00 0.00 41 1017.3
20260502214637 53 352 3.0 7.0 0.00 0.00 0.00 42 1017.3
20260502214134 52 336 4.0 6.0 0.00 0.00 0.00 42 1017.4
20260502213631 52 61 1.0 2.0 0.00 0.00 0.00 42 1017.3
20260502213128 52 31 2.0 4.0 0.00 0.00 0.00 43 1017.3
20260502212627 53 348 3.0 4.0 0.00 0.00 0.00 41 1017.2
20260502212125 53 17 3.0 6.0 0.00 0.00 0.00 42 1017.2
20260502211626 53 83 0.0 3.0 0.00 0.00 0.00 39 1017.3
20260502211123 51 311 2.0 3.0 0.00 0.00 0.00 41 1017.3
20260502210621 52 309 4.0 6.0 0.00 0.00 0.00 42 1017.2
20260502210117 52 315 4.0 6.0 0.00 0.00 0.00 43 1017.2
20260502205614 51 329 2.0 3.0 0.00 0.00 0.00 41 1017.2
20260502205111 51 307 2.0 4.0 0.00 0.00 0.00 41 1017.4
20260502204608 52 9 2.0 3.0 0.00 0.00 0.00 42 1017.2
20260502204105 52 336 1.0 6.0 0.00 0.00 0.00 42 1017.3
20260502203602 52 22 3.0 4.0 0.00 0.00 0.00 42 1017.1
20260502203100 52 284 2.0 3.0 0.00 0.00 0.00 41 1017.3
20260502202555 52 304 2.0 3.0 0.00 0.00 0.00 42 1017.4
20260502202054 53 0 2.0 6.0 0.00 0.00 0.00 39 1017.3
20260502201549 52 305 3.0 6.0 0.00 0.00 0.00 41 1017.4
20260502201046 53 328 4.0 8.0 0.00 0.00 0.00 39 1017.5
20260502200542 53 312 4.0 6.0 0.00 0.00 0.00 40 1017.4
20260502200040 53 48 1.0 7.0 0.00 0.00 0.00 40 1017.3
20260502195537 55 15 2.0 6.0 0.00 0.00 0.00 39 1017.4
20260502195033 56 301 2.0 7.0 0.00 0.00 0.00 41 1017.5
20260502194530 54 341 5.0 7.0 0.00 0.00 0.00 41 1017.3
20260502194026 55 315 2.0 4.0 0.00 0.00 0.00 40 1017.6
20260502193524 52 321 2.0 3.0 0.00 0.00 0.00 40 1017.6
20260502193020 53 336 4.0 6.0 0.00 0.00 0.00 39 1017.5
20260502192516 53 311 6.0 7.0 0.00 0.00 0.00 40 1017.7
20260502192014 53 20 5.0 8.0 0.00 0.00 0.00 40 1017.6
20260502191510 54 325 2.0 8.0 0.00 0.00 0.00 39 1017.5
20260502191008 53 349 3.0 4.0 0.00 0.00 0.00 41 1017.6
20260502190505 54 312 5.0 7.0 0.00 0.00 0.00 40 1017.7
20260502190001 53 341 2.0 4.0 0.00 0.00 0.00 42 1018.0
20260502185457 52 324 1.0 2.0 0.00 0.00 0.00 48 1017.8
20260502184954 53 20 4.0 6.0 0.00 0.00 0.00 42 1017.7
20260502184449 54 38 3.0 7.0 0.00 0.00 0.00 39 1017.8
20260502183946 54 321 3.0 4.0 0.00 0.00 0.00 44 1017.9
20260502183443 53 303 2.0 4.0 0.00 0.00 0.00 40 1017.9
20260502182938 52 340 3.0 6.0 0.00 0.00 0.00 40 1017.9
20260502182434 51 34 3.0 6.0 0.00 0.00 0.00 42 1018.0
20260502181930 52 314 2.0 7.0 0.00 0.00 0.00 43 1017.9
20260502181428 53 301 1.0 3.0 0.00 0.00 0.00 40 1018.1
20260502180926 53 344 5.0 7.0 0.00 0.00 0.00 44 1018.0
20260502180423 52 25 3.0 7.0 0.00 0.00 0.00 46 1018.0
20260502170342 52 25 2.0 4.0 0.00 0.00 0.00 42 1018.6
20260502164329 52 355 2.0 4.0 0.00 0.00 0.00 41 1018.5
20260502163825 52 17 5.0 7.0 0.00 0.00 0.00 43 1018.5
20260502163322 51 351 3.0 6.0 0.00 0.00 0.00 46 1018.6
20260502162820 51 15 2.0 4.0 0.00 0.00 0.00 45 1018.7
20260502162316 51 312 4.0 6.0 0.00 0.00 0.00 45 1018.7
20260502161813 51 357 1.0 3.0 0.00 0.00 0.00 46 1018.7
20260502161309 51 317 4.0 8.0 0.00 0.00 0.00 44 1018.9
20260502160807 50 346 4.0 4.0 0.00 0.00 0.00 45 1018.7
20260502160306 51 300 4.0 7.0 0.00 0.00 0.00 46 1018.8
20260502152235 49 328 1.0 4.0 0.00 0.00 0.00 49 1018.8
20260502151732 49 333 2.0 3.0 0.00 0.00 0.00 52 1018.8
20260502151229 48 11 5.0 8.0 0.00 0.00 0.00 49 1018.9
20260502150727 48 28 2.0 4.0 0.00 0.00 0.00 52 1019.0
20260502150223 48 322 2.0 6.0 0.00 0.00 0.00 52 1018.9
20260502130612 42 340 0.0 2.0 0.00 0.00 0.00 75 1018.8
20260502130110 42 331 1.0 4.0 0.00 0.00 0.00 74 1018.9
20260502123555 41 39 0.0 2.0 0.00 0.00 0.00 81 1018.7
20260502123052 41 327 1.0 2.0 0.00 0.00 0.00 83 1018.8
20260502122548 41 348 0.0 0.0 0.00 0.00 0.00 85 1018.8
20260502122045 41 357 0.0 1.0 0.00 0.00 0.00 87 1018.6
20260502121543 40 18 0.0 0.0 0.00 0.00 0.00 90 1018.7
20260502121040 39 36 0.0 0.0 0.00 0.00 0.00 93 1018.8
20260502120536 38 36 0.0 0.0 0.00 0.00 0.00 95 1018.6
20260502115531 38 37 0.0 0.0 0.00 0.00 0.00 96 1018.6
20260502115027 38 37 0.0 0.0 0.00 0.00 0.00 96 1018.8
20260502114524 38 37 0.0 0.0 0.00 0.00 0.00 96 1018.4
20260502114020 38 37 0.0 0.0 0.00 0.00 0.00 96 1018.5
20260502113518 37 37 0.0 0.0 0.00 0.00 0.00 95 1018.3
20260502113017 37 37 0.0 0.0 0.00 0.00 0.00 95 1018.3
20260502112514 37 37 0.0 0.0 0.00 0.00 0.00 95 1018.3
20260502112011 37 37 0.0 0.0 0.00 0.00 0.00 95 1018.4
20260502111509 37 37 0.0 0.0 0.00 0.00 0.00 94 1018.1
20260502111006 37 37 0.0 0.0 0.00 0.00 0.00 94 1018.1
20260502110503 37 37 0.0 0.0 0.00 0.00 0.00 94 1017.9
20260502110001 37 37 0.0 0.0 0.00 0.00 0.00 94 1017.8
20260502105458 37 37 0.0 0.0 0.00 0.00 0.00 94 1017.8
20260502104955 38 37 0.0 0.0 0.00 0.00 0.00 94 1017.7
20260502104453 38 37 0.0 0.0 0.00 0.00 0.00 94 1017.7
20260502103950 38 36 0.0 0.0 0.00 0.00 0.00 95 1018.0
20260502103447 38 37 0.0 0.0 0.00 0.00 0.00 95 1018.0
20260502102944 38 37 0.0 0.0 0.00 0.00 0.00 95 1018.1
20260502102441 38 37 0.0 0.0 0.00 0.00 0.00 96 1018.0
20260502101938 38 37 0.0 0.0 0.00 0.00 0.00 96 1018.0
20260502101436 38 37 0.0 0.0 0.00 0.00 0.00 96 1018.0
20260502100934 38 37 0.0 0.0 0.00 0.00 0.00 96 1018.1
20260502100433 37 37 0.0 0.0 0.00 0.00 0.00 96 1018.0
20260502091408 36 37 0.0 0.0 0.00 0.00 0.00 96 1018.1
20260502090905 36 37 0.0 0.0 0.00 0.00 0.00 96 1017.9
20260502090401 36 37 0.0 0.0 0.00 0.00 0.00 95 1017.9
20260502071256 39 36 0.0 0.0 0.00 0.00 0.00 90 1017.7
20260502070754 39 36 0.0 0.0 0.00 0.00 0.00 90 1017.7
20260502070252 39 36 0.0 0.0 0.00 0.00 0.00 90 1017.7
20260502065750 39 36 0.0 0.0 0.00 0.00 0.00 91 1017.6
20260502065248 39 36 0.0 0.0 0.00 0.00 0.00 91 1017.5
20260502064746 39 36 0.0 0.0 0.00 0.00 0.00 90 1017.7
20260502064244 40 36 0.0 0.0 0.00 0.00 0.00 89 1017.7
20260502063741 40 36 0.0 0.0 0.00 0.00 0.00 89 1018.0
20260502063239 41 36 0.0 0.0 0.00 0.00 0.00 88 1018.1
20260502062735 41 36 0.0 0.0 0.00 0.00 0.00 88 1018.1
20260502062233 40 36 0.0 0.0 0.00 0.00 0.00 89 1018.3
20260502061731 40 37 0.0 0.0 0.00 0.00 0.00 91 1018.0
20260502061229 40 37 0.0 0.0 0.00 0.00 0.00 91 1018.3
20260502060724 40 37 0.0 0.0 0.00 0.00 0.00 91 1018.3
20260502060220 40 37 0.0 0.0 0.00 0.00 0.00 91 1018.5
20260502055718 40 37 0.0 0.0 0.00 0.00 0.00 91 1018.3
20260502055215 40 37 0.0 0.0 0.00 0.00 0.00 91 1018.4
20260502054715 40 37 0.0 0.0 0.00 0.00 0.00 91 1018.3
20260502054212 40 37 0.0 0.0 0.00 0.00 0.00 91 1018.2
20260502053709 40 37 0.0 0.0 0.00 0.00 0.00 91 1018.5
20260502053206 40 37 0.0 0.0 0.00 0.00 0.00 91 1018.4
20260502052704 40 37 0.0 0.0 0.00 0.00 0.00 90 1018.4
20260502052202 40 37 0.0 0.0 0.00 0.00 0.00 90 1018.4
20260502051700 40 37 0.0 0.0 0.00 0.00 0.00 90 1018.3
20260502051158 40 37 0.0 0.0 0.00 0.00 0.00 90 1018.1
20260502050654 40 37 0.0 0.0 0.00 0.00 0.00 89 1018.1
20260502050150 40 37 0.0 0.0 0.00 0.00 0.00 90 1018.2
20260502045647 40 37 0.0 0.0 0.00 0.00 0.00 90 1018.2
20260502045145 40 37 0.0 0.0 0.00 0.00 0.00 90 1018.1
20260502044641 39 37 0.0 0.0 0.00 0.00 0.00 90 1018.3
20260502044137 39 37 0.0 0.0 0.00 0.00 0.00 90 1018.2
20260502043635 39 37 0.0 0.0 0.00 0.00 0.00 90 1018.4
20260502043133 39 37 0.0 0.0 0.00 0.00 0.00 89 1018.3
20260502042632 40 37 0.0 0.0 0.00 0.00 0.00 89 1018.3
20260502042129 40 37 0.0 0.0 0.00 0.00 0.00 89 1018.3
20260502041627 40 37 0.0 0.0 0.00 0.00 0.00 89 1018.3
20260502041124 40 37 0.0 0.0 0.00 0.00 0.00 89 1018.2
20260502040620 40 37 0.0 0.0 0.00 0.00 0.00 89 1018.4
20260502040118 40 37 0.0 0.0 0.00 0.03 0.03 88 1018.2
20260502035614 40 37 0.0 0.0 0.00 0.03 0.03 88 1018.2
20260502035111 41 37 0.0 0.0 0.00 0.03 0.03 87 1018.4
20260502034609 41 37 0.0 0.0 0.00 0.03 0.03 87 1018.2
20260502034107 41 37 0.0 0.0 0.00 0.03 0.03 87 1018.5
20260502033605 41 37 0.0 0.0 0.00 0.03 0.03 87 1018.3
20260502033102 41 37 0.0 0.0 0.00 0.03 0.03 86 1018.3
20260502032558 41 36 0.0 0.0 0.00 0.03 0.03 85 1018.5
20260502032054 41 36 0.0 0.0 0.00 0.03 0.03 85 1018.4
20260502031552 41 36 0.0 0.0 0.00 0.03 0.03 84 1018.3
20260502031050 41 36 0.0 0.0 0.00 0.03 0.03 84 1018.2
20260502030549 41 36 0.0 0.0 0.00 0.03 0.03 85 1018.3
20260502030046 42 36 0.0 0.0 0.00 0.03 0.03 85 1018.2
20260502025543 42 36 1.0 1.0 0.00 0.03 0.03 84 1018.1
20260502025042 42 36 0.0 0.0 0.00 0.03 0.03 84 1018.2
20260502024538 42 36 0.0 0.0 0.00 0.03 0.03 85 1018.2
20260502024037 42 36 0.0 1.0 0.00 0.03 0.03 85 1018.1
20260502023534 43 35 0.0 0.0 0.00 0.03 0.03 84 1018.1
20260502023031 43 35 0.0 0.0 0.00 0.03 0.03 83 1018.0
20260502022528 43 35 0.0 0.0 0.00 0.03 0.03 81 1018.0
20260502022026 44 35 0.0 0.0 0.00 0.03 0.03 80 1018.0